Hourly Weather Przystronie

Today, 12 May, Wednesday

Time Temperature Precipitation Wind Pressure Humidity
00:00 +18°C° 0 mm 4 mps 737 mmHg 77%
01:00 +18°C° 0 mm 4 mps 736 mmHg 77%
02:00 +17°C° 0 mm 4 mps 737 mmHg 80%
03:00 +17°C° 0 mm 3 mps 737 mmHg 84%
04:00 +16°C° 0 mm 3 mps 737 mmHg 87%
05:00 +17°C° 0.1 mm 2 mps 737 mmHg 85%
06:00 +18°C° 0.1 mm 2 mps 737 mmHg 84%
07:00 +19°C° 0.1 mm 2 mps 738 mmHg 83%
08:00 +19°C° 0.1 mm 2 mps 738 mmHg 82%
09:00 +20°C° 0.1 mm 3 mps 738 mmHg 81%
10:00 +20°C° 0.1 mm 3 mps 738 mmHg 80%
11:00 +20°C° 0.3 mm 3 mps 738 mmHg 82%
12:00 +20°C° 0.3 mm 3 mps 738 mmHg 83%
13:00 +19°C° 0.3 mm 3 mps 738 mmHg 85%
14:00 +20°C° 0.6 mm 3 mps 737 mmHg 84%
15:00 +20°C° 0.6 mm 3 mps 737 mmHg 84%
16:00 +20°C° 0.6 mm 3 mps 736 mmHg 83%
17:00 +19°C° 2.6 mm 3 mps 736 mmHg 87%
18:00 +18°C° 2.6 mm 2 mps 736 mmHg 92%
19:00 +17°C° 2.6 mm 2 mps 735 mmHg 96%
20:00 +16°C° 1.2 mm 2 mps 735 mmHg 96%
21:00 +16°C° 1.2 mm 1 mps 736 mmHg 96%
22:00 +16°C° 1.2 mm 1 mps 736 mmHg 96%
23:00 +15°C° 0.1 mm 1 mps 735 mmHg 96%

Tomorrow, 13 May, Thursday

Time Temperature Precipitation Wind Pressure Humidity
00:00 +15°C° 0.1 mm 1 mps 735 mmHg 96%
01:00 +14°C° 0.1 mm 0 mps 735 mmHg 96%
02:00 +14°C° 0.1 mm 0 mps 734 mmHg 96%
03:00 +14°C° 0.1 mm 0 mps 734 mmHg 96%
04:00 +13°C° 0.1 mm 0 mps 734 mmHg 96%
05:00 +15°C° 0.1 mm 1 mps 734 mmHg 96%
06:00 +15°C° 0.1 mm 1 mps 733 mmHg 95%
07:00 +15°C° 0.1 mm 1 mps 733 mmHg 94%
08:00 +15°C° 0.3 mm 1 mps 733 mmHg 94%
09:00 +15°C° 0.3 mm 1 mps 733 mmHg 93%
10:00 +15°C° 0.3 mm 1 mps 733 mmHg 93%
11:00 +14°C° 1.1 mm 1 mps 733 mmHg 94%
12:00 +14°C° 1.1 mm 2 mps 733 mmHg 94%
13:00 +14°C° 1.1 mm 2 mps 733 mmHg 95%
14:00 +14°C° 0.9 mm 2 mps 733 mmHg 95%
15:00 +12°C° 0.9 mm 3 mps 733 mmHg 95%
16:00 +12°C° 0.9 mm 3 mps 733 mmHg 95%
17:00 +11°C° 0.4 mm 4 mps 733 mmHg 94%
18:00 +11°C° 0.4 mm 4 mps 733 mmHg 94%
19:00 +10°C° 0.4 mm 4 mps 734 mmHg 94%
20:00 +10°C° 0.8 mm 4 mps 734 mmHg 94%
21:00 +10°C° 0.8 mm 4 mps 734 mmHg 94%
22:00 +10°C° 0.8 mm 4 mps 734 mmHg 94%
23:00 +8°C° 0.5 mm 4 mps 735 mmHg 94%

Day after tomorrow, 14 May, Friday

Time Temperature Precipitation Wind Pressure Humidity
00:00 +8°C° 0.5 mm 4 mps 735 mmHg 94%
01:00 +8°C° 0.5 mm 4 mps 735 mmHg 93%
02:00 +8°C° 0.3 mm 4 mps 735 mmHg 93%
03:00 +8°C° 0.3 mm 4 mps 735 mmHg 93%
04:00 +9°C° 0.3 mm 3 mps 735 mmHg 92%
05:00 +8°C° 0.1 mm 4 mps 736 mmHg 90%
06:00 +10°C° 0.1 mm 4 mps 736 mmHg 88%
07:00 +10°C° 0.1 mm 4 mps 736 mmHg 85%
08:00 +11°C° 0 mm 4 mps 737 mmHg 81%
09:00 +12°C° 0 mm 5 mps 737 mmHg 76%
10:00 +13°C° 0 mm 5 mps 737 mmHg 72%
11:00 +13°C° 0.1 mm 5 mps 737 mmHg 70%
12:00 +14°C° 0.1 mm 5 mps 738 mmHg 69%
13:00 +14°C° 0.1 mm 5 mps 738 mmHg 67%
14:00 +15°C° 0.1 mm 4 mps 738 mmHg 67%
15:00 +16°C° 0.1 mm 3 mps 738 mmHg 68%
16:00 +16°C° 0.1 mm 3 mps 738 mmHg 68%
17:00 +15°C° 0.1 mm 2 mps 738 mmHg 72%
18:00 +14°C° 0.1 mm 2 mps 738 mmHg 77%
19:00 +13°C° 0.1 mm 1 mps 738 mmHg 82%
20:00 +12°C° 0 mm 1 mps 738 mmHg 84%
21:00 +11°C° 0 mm 1 mps 739 mmHg 85%
22:00 +9°C° 0 mm 2 mps 739 mmHg 87%
23:00 +9°C° 0 mm 2 mps 739 mmHg 87%

15 May, Saturday

Time Temperature Precipitation Wind Pressure Humidity
00:00 +8°C° 0 mm 2 mps 739 mmHg 88%
01:00 +8°C° 0 mm 2 mps 739 mmHg 88%
02:00 +8°C° 0 mm 1 mps 739 mmHg 88%
03:00 +8°C° 0 mm 1 mps 739 mmHg 88%
04:00 +8°C° 0 mm 1 mps 739 mmHg 88%
05:00 +9°C° 0 mm 1 mps 739 mmHg 85%
06:00 +10°C° 0 mm 0 mps 739 mmHg 81%
07:00 +12°C° 0 mm 0 mps 740 mmHg 78%
08:00 +13°C° 0.1 mm 0 mps 740 mmHg 74%
09:00 +15°C° 0.1 mm 1 mps 739 mmHg 71%
10:00 +18°C° 0.1 mm 1 mps 739 mmHg 67%
11:00 +18°C° 0.4 mm 1 mps 739 mmHg 65%
12:00 +19°C° 0.4 mm 1 mps 739 mmHg 63%
13:00 +19°C° 0.4 mm 1 mps 739 mmHg 61%
14:00 +19°C° 0.5 mm 1 mps 739 mmHg 64%
15:00 +19°C° 0.5 mm 1 mps 738 mmHg 66%
16:00 +19°C° 0.5 mm 1 mps 738 mmHg 68%
17:00 +16°C° 0.7 mm 1 mps 738 mmHg 73%
18:00 +15°C° 0.7 mm 1 mps 738 mmHg 79%
19:00 +14°C° 0.7 mm 1 mps 738 mmHg 84%
20:00 +13°C° 0.6 mm 1 mps 738 mmHg 86%
21:00 +13°C° 0.6 mm 1 mps 738 mmHg 88%
22:00 +12°C° 0.6 mm 1 mps 739 mmHg 90%
23:00 +12°C° 0.4 mm 1 mps 739 mmHg 91%

16 May, Sunday

Time Temperature Precipitation Wind Pressure Humidity
00:00 +12°C° 0.4 mm 2 mps 739 mmHg 92%
01:00 +12°C° 0.4 mm 2 mps 739 mmHg 93%
02:00 +12°C° 0.1 mm 2 mps 739 mmHg 94%
03:00 +10°C° 0.1 mm 2 mps 739 mmHg 95%
04:00 +10°C° 0.1 mm 2 mps 739 mmHg 95%
05:00 +12°C° 0 mm 2 mps 739 mmHg 94%
06:00 +12°C° 0 mm 1 mps 740 mmHg 93%
07:00 +12°C° 0 mm 1 mps 740 mmHg 91%
08:00 +13°C° 0.1 mm 2 mps 740 mmHg 88%
09:00 +14°C° 0.1 mm 2 mps 740 mmHg 84%
10:00 +15°C° 0.1 mm 2 mps 740 mmHg 80%
11:00 +14°C° 0.5 mm 3 mps 740 mmHg 80%
12:00 +14°C° 0.5 mm 3 mps 740 mmHg 80%
13:00 +14°C° 0.5 mm 3 mps 740 mmHg 80%
14:00 +14°C° 0.4 mm 3 mps 740 mmHg 80%
15:00 +15°C° 0.4 mm 2 mps 739 mmHg 81%
16:00 +15°C° 0.4 mm 2 mps 739 mmHg 81%
17:00 +14°C° 0.1 mm 2 mps 739 mmHg 83%
18:00 +14°C° 0.1 mm 2 mps 739 mmHg 84%
19:00 +13°C° 0.1 mm 2 mps 739 mmHg 85%
20:00 +12°C° 0 mm 2 mps 739 mmHg 86%
21:00 +10°C° 0 mm 2 mps 739 mmHg 87%
22:00 +9°C° 0 mm 2 mps 739 mmHg 88%
23:00 +8°C° 0 mm 2 mps 739 mmHg 89%

17 May, Monday

Time Temperature Precipitation Wind Pressure Humidity
00:00 +8°C° 0 mm 2 mps 739 mmHg 90%
01:00 +8°C° 0 mm 2 mps 739 mmHg 90%
02:00 +7°C° 0 mm 2 mps 739 mmHg 91%
03:00 +7°C° 0 mm 2 mps 740 mmHg 91%
04:00 +7°C° 0 mm 2 mps 740 mmHg 92%
05:00 +8°C° 0 mm 2 mps 740 mmHg 88%
06:00 +10°C° 0 mm 2 mps 740 mmHg 85%
07:00 +12°C° 0 mm 2 mps 740 mmHg 82%
08:00 +13°C° 0 mm 3 mps 740 mmHg 75%
09:00 +14°C° 0 mm 3 mps 740 mmHg 68%
10:00 +16°C° 0 mm 3 mps 739 mmHg 62%
11:00 +17°C° 0 mm 3 mps 739 mmHg 59%
12:00 +18°C° 0 mm 2 mps 739 mmHg 57%
13:00 +18°C° 0 mm 2 mps 739 mmHg 55%
14:00 +18°C° 0.3 mm 2 mps 739 mmHg 59%
15:00 +18°C° 0.3 mm 3 mps 739 mmHg 63%
16:00 +18°C° 0.3 mm 3 mps 739 mmHg 67%
17:00 +16°C° 0.2 mm 3 mps 739 mmHg 73%
18:00 +15°C° 0.2 mm 2 mps 739 mmHg 79%
19:00 +14°C° 0.2 mm 2 mps 739 mmHg 84%
20:00 +13°C° 0.1 mm 2 mps 739 mmHg 87%
21:00 +12°C° 0.1 mm 2 mps 740 mmHg 90%
22:00 +10°C° 0.1 mm 2 mps 740 mmHg 92%
23:00 +10°C° 0 mm 2 mps 740 mmHg 92%
Show more

We Need Your Consent

Meteoprog and our Service Providers may store and access personal data such as cookies, device identifiers or other similar technologies on your device and process such data to personalise content and ads, as well as provide social media features and to analyse the traffic.

  • Store and/or access information on your device

    Cookies, device identifiers or other information can be stored or accessed on your device for the purposes indicated above.

  • Personalised ads and content, ad and content measurement, audience insights, and products development

    Ads and content can be personalised based on a profile. More data can be added to better personalise ads and content. Ad and content performance can be measured. Insights about the audience who saw the ads and content can be derived. Such data can be used to develop or improve user’s experience, systems and software.

By clicking ‘I Agree’ you will allow the use of indicated cookies, device identifiers, web beacons or other similar technologies. Your settings can be changed in the browser on your device.

For certain purposes, legitimate interests may be relied on, rather than consent. You can read more about this in our Privacy and Cookie Policy.